Terminal Aerodrome Forecast
Issued by NWS

Home | Current Version | Previous Version | Text Only | Print | Product List | Glossary On
Versions: 1 2 3 4 5 6 7 8 9 10 11 12 13 14 15
000
FTUS43 KGRR 300520
TAFLAN
TAF
KLAN 300520Z 3006/3106 23006KT 5SM BR VCSH BKN025
     FM301400 31006KT 2SM -RA BR OVC005
     FM302200 01012G22KT 2SM -RA BR OVC005
     FM310400 35014G24KT 4SM -RA BR OVC012=

USA.gov is the U.S. government's official web portal to all federal, state and local government web resources and services.